Tucson, AZ

10:21 PM MST on August 23, 2017 (GMT -0700)
Tucson International

Weather History for KTUS - January, 2014

Change the Weather History Date:

Friday, January 24, 2014

  Actual Average Record
Temperature  
Mean Temperature 60 °F 53 °F  
Max Temperature 66 °F 66 °F 87 °F (1999)
Min Temperature 53 °F 40 °F 17 °F (1937)
Degree Days  
Heating Degree Days 5 12  
Month to date heating degree days 205 302  
Since 1 July heating degree days 670 913  
Cooling Degree Days 0 0  
Month to date cooling degree days 0 0  
Year to date cooling degree days 0 0  
Growing Degree Days 8 (Base 50)    
Moisture  
Dew Point 17 °F    
Average Humidity 21    
Maximum Humidity 28    
Minimum Humidity 14    
Precipitation  
Precipitation 0.00 in 0.03 in 0.48 in (1962)
Month to date precipitation 0.00 0.72  
Year to date precipitation 0.00 0.72  
Sea Level Pressure  
Sea Level Pressure 30.20 in    
Wind  
Wind Speed 14 mph (ESE)    
Max Wind Speed 29 mph    
Max Gust Speed 36 mph    
Visibility 10 miles    
Events      
T = Trace of Precipitation, MM = Missing Value Source: NWS Daily Summary

Daily Weather History Graph

Daily Weather History Graph

Search for Another Location

Airport or City:

Trip Planner

Search our weather history database for the weather conditions in past years. The results will help you decide how hot, cold, wet, or windy it might be!

Date:

Astronomy

Jan. 24, 2014 Rise Set
Actual Time 7:21 AM MST 5:50 PM MST
Civil Twilight 6:55 AM MST 6:16 PM MST
Nautical Twilight 6:26 AM MST 6:45 PM MST
Astronomical Twilight 5:57 AM MST 7:15 PM MST
Moon 12:57 AM MST 12:07 PM MST
Length of Visible Light 11h 20m
Length of Day
10h 28m
Last Quarter, 44% of the Moon is Illuminated
Jan 24
Last Quarter
Jan 30
New
Feb 6
First Quarter
Feb 14
Full
Feb 22
Last Quarter

Hourly Weather History & Observations

Time (MST) Temp. Dew Point Humidity Pressure Visibility Wind Dir Wind Speed Gust Speed Precip Events Conditions
12:53 AM 57.9 °F 17.1 °F 20% 30.14 in 10.0 mi East 4.6 mph - N/A   Clear
1:53 AM 57.9 °F 17.1 °F 20% 30.14 in 10.0 mi East 10.4 mph - N/A   Clear
2:53 AM 57.9 °F 17.1 °F 20% 30.15 in 10.0 mi East 13.8 mph - N/A   Clear
3:53 AM 55.9 °F 17.1 °F 22% 30.16 in 10.0 mi East 15.0 mph 23.0 mph N/A   Clear
4:53 AM 55.0 °F 16.0 °F 22% 30.16 in 10.0 mi East 15.0 mph 24.2 mph N/A   Clear
5:53 AM 55.0 °F 16.0 °F 22% 30.19 in 10.0 mi East 15.0 mph 27.6 mph N/A   Clear
6:53 AM 54.0 °F 16.0 °F 22% 30.21 in 10.0 mi ESE 24.2 mph 31.1 mph N/A   Clear
7:53 AM 53.1 °F 16.0 °F 23% 30.24 in 10.0 mi ESE 23.0 mph 33.4 mph N/A   Clear
8:53 AM 54.0 °F 16.0 °F 22% 30.25 in 10.0 mi ESE 20.7 mph 31.1 mph N/A   Clear
9:53 AM 55.0 °F 17.1 °F 23% 30.27 in 10.0 mi ESE 21.9 mph 33.4 mph N/A   Clear
10:53 AM 57.9 °F 17.1 °F 20% 30.28 in 10.0 mi ESE 21.9 mph 27.6 mph N/A   Clear
11:53 AM 64.0 °F 17.1 °F 16% 30.26 in 10.0 mi ESE 17.3 mph 27.6 mph N/A   Clear
12:53 PM 63.0 °F 16.0 °F 16% 30.22 in 10.0 mi ESE 18.4 mph 25.3 mph N/A   Clear
1:53 PM 64.0 °F 16.0 °F 16% 30.18 in 10.0 mi ESE 16.1 mph 25.3 mph N/A   Clear
2:53 PM 64.9 °F 17.1 °F 16% 30.17 in 10.0 mi East 11.5 mph - N/A   Clear
3:53 PM 66.0 °F 16.0 °F 15% 30.17 in 10.0 mi ESE 10.4 mph 20.7 mph N/A   Mostly Cloudy
4:53 PM 64.9 °F 16.0 °F 15% 30.18 in 10.0 mi ESE 12.7 mph - N/A   Partly Cloudy
5:53 PM 64.0 °F 16.0 °F 16% 30.19 in 10.0 mi ESE 12.7 mph - N/A   Mostly Cloudy
6:53 PM 63.0 °F 16.0 °F 16% 30.20 in 10.0 mi ESE 11.5 mph - N/A   Overcast
7:53 PM 62.1 °F 17.1 °F 18% 30.20 in 10.0 mi ESE 12.7 mph - N/A   Mostly Cloudy
8:53 PM 62.1 °F 17.1 °F 18% 30.20 in 10.0 mi ESE 10.4 mph - N/A   Overcast
9:53 PM 62.1 °F 18.0 °F 18% 30.20 in 10.0 mi ESE 8.1 mph - N/A   Overcast
10:53 PM 61.0 °F 19.0 °F 20% 30.20 in 10.0 mi ESE 9.2 mph - N/A   Overcast
11:53 PM 61.0 °F 19.0 °F 20% 30.19 in 10.0 mi SE 5.8 mph - N/A   Overcast